Retour au catalogue

SL-14 DEB

ActifPO
NORAD 26021·DEBRIS·🇷🇺 Russia

Lancé Sep 28, 1991 depuis Plesetsk Cosmodrome

Loading…

Prochains Passages (prochaines 24 heures)

TLE

FraisSource: Space-Track

Époque: Sep 13, 2026, 17:41 UTC

1 26021U 91068AG  26256.73730951  .00000676  00000-0  21281-2 0  9996
2 26021  81.7783 339.1261 0221653 239.4626 248.0937 12.95071894638010

Suivez SL-14 DEB en temps réel avec AllMySat

Download on the App Store